sat.trackr.live / text

‹ back to catalog

STARLINK-35095

NORAD 65425 · 2025-192X

PAYLOAD ACTIVE UNKNOWN

§ Identity

Operator
Country
US
Launch date
2025-08-31
Launch site
AFETR
Launch vehicle
Mass (kg)
RCS (m²)

Purposes: comms

External: N2YO · Heavens-Above · Gunter

§ Orbital elements

Epoch: 2026-09-20T17:42:37.756800Z

Period
94.01 min
Inclination
53.1602°
Eccentricity
0.0000503
Mean motion
15.31726732 rev/d
Perigee alt
470.3 km
Apogee alt
471.0 km
Semi-major
6,848.8 km
B*
6.0696e-4
RAAN
45.1856°
Arg perigee
104.1558°
Mean anomaly
255.9500°
Rev number
5,926

§ Raw data

STARLINK-350951 65425U 25192X   26263.73793700  .00018532  00000+0  60696-3 0  99942 65425  53.1602  45.1856 0000503 104.1558 255.9500 15.31726732 59267

JSON: /api/v1/satellites/65425 · /tle

For live sub-satellite position, see the globe view (requires WebGL).

§ Visibility from observer

Set your observer location to see the next 7 days of passes ≥ 10°. The values pass through the URL so the page stays shareable.

No JS? Fill the form by hand. The geolocation button needs JavaScript.